Home > Weather > Little Rock > Past weeks

Flag for U.S.A. Weather for the Past 2 Weeks in Little Rock, Arkansas, U.S.A.

Now
44 °F

Clear.


Feels Like: 36 °F
Forecast: 37 / 49 °F
Wind: 17 mph from West

Location: Adams Field

Current Time: Feb 8, 2016 at 6:26:13 AM

Latest Report: Feb 8, 2016 at 5:53 AM


Visibility: 10 mi

Pressure: 30.01 "Hg

Humidity: 38%

Dew point: 20 °F

Location of Little RockLocation

Historic Weather in Little Rock — Graph

°F

Little Rock Temperature Yesterday

Maximum temperature yesterday: 61 °F (at 2:53 PM)
Minimum temperature yesterday: 31 °F (at 4:53 AM)
Average temperature yesterday: 47 °F

High & Low Weather Summary for the Past Weeks

 TemperatureHumidityPressure
High74 °F (Feb 2, 1:53 PM)93% (Feb 2, 3:53 AM)30.51 "Hg (Feb 2, 3:53 AM)
Low26 °F (Jan 24, 4:53 AM)19% (Feb 5, 1:53 PM)29.54 "Hg (Feb 2, 3:53 PM)
Average49 °F57%30.07 "Hg
* Reported Jan 24 4:53 AM — Feb 8 4:53 AM, Little Rock, Weather by CustomWeather, © 2016

Note: Actual official high and low records may vary slightly from our data, if they occured in-between our weather recording intervals... More about our weather records

Advertising

Little Rock Weather History for the Previous 24 Hours

 ConditionsComfort  
Time TempWeatherWind HumidityBarometerVisibility
4:53 AM
Mon, Feb 8
44 °FClear.13 mph35%30.01 "Hg10 mi
3:53 AM46 °FClear.10 mph33%30.02 "Hg10 mi
2:53 AM47 °FPassing clouds.16 mph33%30.03 "Hg10 mi
1:53 AM49 °FPassing clouds.17 mph33%30.03 "Hg10 mi
12:53 AM51 °FPassing clouds.14 mph35%30.04 "Hg10 mi
11:53 PM
Sun, Feb 7
51 °FPassing clouds.13 mph38%30.04 "Hg10 mi
10:53 PM53 °FMostly cloudy.13 mph37%30.06 "Hg10 mi
9:53 PM54 °FMostly cloudy.14 mph38%30.06 "Hg10 mi
8:53 PM54 °FPartly cloudy.13 mph40%30.06 "Hg10 mi
7:53 PM49 °FPartly cloudy.6 mph46%30.06 "Hg10 mi
6:53 PM53 °FPassing clouds.6 mph41%30.06 "Hg10 mi
5:53 PM55 °FPassing clouds.7 mph34%30.04 "Hg10 mi
4:53 PM58 °FScattered clouds.10 mph32%30.05 "Hg10 mi
3:53 PM61 °FPartly sunny.12 mph29%30.04 "Hg10 mi
2:53 PM61 °FPartly sunny.16 mph29%30.05 "Hg10 mi
1:53 PM59 °FPartly sunny.15 mph31%30.09 "Hg10 mi
12:53 PM59 °FPartly sunny.15 mph31%30.12 "Hg10 mi
11:53 AM57 °FPassing clouds.13 mph32%30.17 "Hg10 mi
10:53 AM54 °FPassing clouds.17 mph37%30.21 "Hg10 mi
9:53 AM49 °FPassing clouds.8 mph48%30.23 "Hg10 mi
8:53 AM40 °FSunny.7 mph60%30.23 "Hg9 mi
7:53 AM35 °FSunny.8 mph67%30.23 "Hg10 mi
6:53 AM31 °FPassing clouds.6 mph76%30.24 "Hg10 mi
Weather by CustomWeather, © 2016

See weather overviewHow to use our weather pages